RLXB4W LPLA-LEPA

Flight info

Callsign RLXB4W
Flight time 3h 16m
Altitude 37000
Route REGLA DCT 3925N DCT 40N022W 42N016W/N0456F370 DCT RIPEL DCT XERES DCT VON DCT RALUS DCT VETAN DCT NUB DCT SIE DCT SEGRE DCT CMA DCT SAURA DCT EPAMA
Aircraft B738/M-SDE2E3FGHIRWXY/LB1

Departure

Time 2026-05-07 15:11
Airport Lajes Airport (LPLA)

Arrival

Time 2026-05-07 18:27
Airport Palma de Mallorca Airport (LEPA)
Time Latitude Longitude Altitude Speed Heading
2026-05-07 14:17 38.75961 -27.08517 176 ft 0 kts 226°
2026-05-07 15:05 38.75952 -27.08530 176 ft 3 kts 228°
2026-05-07 15:05 38.75934 -27.08545 176 ft 3 kts 200°
2026-05-07 15:05 38.75898 -27.08535 176 ft 9 kts 150°
2026-05-07 15:06 38.75835 -27.08473 176 ft 12 kts 142°
2026-05-07 15:06 38.75769 -27.08406 177 ft 12 kts 142°
2026-05-07 15:06 38.75706 -27.08339 178 ft 12 kts 137°
2026-05-07 15:06 38.75647 -27.08269 178 ft 11 kts 137°
2026-05-07 15:07 38.75552 -27.08169 179 ft 21 kts 140°
2026-05-07 15:07 38.75530 -27.08147 179 ft 0 kts 142°
2026-05-07 15:07 38.75511 -27.08128 180 ft 8 kts 143°
2026-05-07 15:08 38.75440 -27.08057 181 ft 9 kts 140°
2026-05-07 15:08 38.75384 -27.08032 181 ft 9 kts 202°
2026-05-07 15:08 38.75365 -27.08062 182 ft 0 kts 237°
2026-05-07 15:09 38.75358 -27.08075 182 ft 6 kts 237°
2026-05-07 15:09 38.75326 -27.08144 182 ft 10 kts 253°
2026-05-07 15:09 38.75360 -27.08218 182 ft 10 kts 320°
2026-05-07 15:10 38.75387 -27.08246 181 ft 0 kts 322°
2026-05-07 15:10 38.75432 -27.08291 180 ft 35 kts 321°
2026-05-07 15:10 38.75803 -27.08677 178 ft 100 kts 321°
2026-05-07 15:10 38.76459 -27.09358 329 ft 137 kts 321°
2026-05-07 15:11 38.77237 -27.10154 883 ft 151 kts 323°
2026-05-07 15:11 38.78122 -27.11020 1446 ft 168 kts 323°
2026-05-07 15:11 38.79223 -27.11827 1628 ft 200 kts 343°
2026-05-07 15:11 38.80709 -27.11839 2023 ft 226 kts
2026-05-07 15:12 38.82248 -27.11214 2785 ft 242 kts 24°
2026-05-07 15:12 38.83489 -27.09655 3596 ft 261 kts 50°
2026-05-07 15:12 38.84112 -27.07393 4370 ft 282 kts 80°
2026-05-07 15:12 38.83739 -27.04891 5185 ft 297 kts 114°
2026-05-07 15:13 38.82438 -27.02811 5985 ft 302 kts 131°
2026-05-07 15:13 38.81395 -27.00502 6622 ft 301 kts 97°
2026-05-07 15:13 38.81326 -26.97907 7368 ft 293 kts 79°
2026-05-07 15:13 38.81518 -26.95285 8101 ft 298 kts 78°
2026-05-07 15:14 38.81727 -26.92619 8855 ft 302 kts 78°
2026-05-07 15:14 38.81922 -26.89919 9622 ft 306 kts 78°
2026-05-07 15:14 38.82102 -26.87175 10237 ft 314 kts 79°
2026-05-07 15:14 38.82281 -26.84278 10437 ft 337 kts 80°
2026-05-07 15:15 38.82457 -26.81186 10614 ft 358 kts 81°
2026-05-07 15:15 38.82631 -26.77901 10812 ft 377 kts 81°
2026-05-07 15:15 38.82800 -26.74496 11294 ft 386 kts 82°
2026-05-07 15:15 38.82961 -26.71046 11940 ft 390 kts 82°
2026-05-07 15:16 38.83122 -26.67556 12620 ft 393 kts 82°
2026-05-07 15:16 38.83283 -26.64033 13309 ft 397 kts 82°
2026-05-07 15:16 38.83444 -26.60513 13936 ft 403 kts 82°
2026-05-07 15:16 38.83609 -26.56910 14543 ft 407 kts 82°
2026-05-07 15:17 38.83774 -26.53276 15199 ft 410 kts 82°
2026-05-07 15:17 38.83943 -26.49583 15740 ft 417 kts 82°
2026-05-07 15:17 38.84111 -26.45850 16384 ft 421 kts 82°
2026-05-07 15:17 38.84279 -26.42091 17036 ft 424 kts 82°
2026-05-07 15:18 38.84448 -26.38291 17642 ft 429 kts 82°
2026-05-07 15:18 38.84617 -26.34453 18223 ft 433 kts 82°
2026-05-07 15:18 38.84787 -26.30569 18738 ft 437 kts 82°
2026-05-07 15:18 38.84957 -26.26656 19257 ft 441 kts 82°
2026-05-07 15:19 38.85126 -26.22716 19872 ft 442 kts 83°
2026-05-07 15:19 38.85295 -26.18765 20441 ft 445 kts 83°
2026-05-07 15:19 38.85463 -26.14831 20899 ft 450 kts 83°
2026-05-07 15:19 38.85739 -26.10816 21344 ft 452 kts 78°
2026-05-07 15:20 38.86222 -26.06820 21838 ft 454 kts 76°
2026-05-07 15:20 38.86793 -26.02816 22320 ft 457 kts 75°
2026-05-07 15:20 38.87386 -25.98796 22784 ft 460 kts 75°
2026-05-07 15:20 38.87971 -25.94743 23264 ft 464 kts 76°
2026-05-07 15:21 38.88542 -25.90642 23700 ft 467 kts 76°
2026-05-07 15:21 38.89089 -25.86575 24046 ft 470 kts 76°
2026-05-07 15:21 38.89637 -25.82411 24369 ft 474 kts 76°
2026-05-07 15:21 38.90180 -25.78217 24689 ft 478 kts 76°
2026-05-07 15:22 38.90724 -25.73989 25016 ft 482 kts 76°
2026-05-07 15:22 38.91269 -25.69730 25345 ft 485 kts 76°
2026-05-07 15:22 38.91818 -25.65437 25659 ft 488 kts 76°
2026-05-07 15:22 38.92370 -25.61104 26016 ft 491 kts 77°
2026-05-07 15:23 38.92922 -25.56767 26381 ft 492 kts 77°
2026-05-07 15:23 38.93467 -25.52473 26675 ft 496 kts 77°
2026-05-07 15:23 38.94023 -25.48089 26945 ft 499 kts 76°
2026-05-07 15:23 38.94582 -25.43667 27227 ft 502 kts 76°
2026-05-07 15:24 38.95141 -25.39227 27509 ft 505 kts 77°
2026-05-07 15:24 38.95701 -25.34763 27791 ft 508 kts 77°
2026-05-07 15:24 38.96263 -25.30266 28065 ft 510 kts 77°
2026-05-07 15:24 38.96826 -25.25753 28321 ft 513 kts 77°
2026-05-07 15:25 38.97391 -25.21206 28582 ft 516 kts 77°
2026-05-07 15:25 38.97956 -25.16640 28904 ft 517 kts 77°
2026-05-07 15:25 38.98329 -25.13614 29165 ft 516 kts 76°
2026-05-07 15:25 38.99073 -25.07573 29696 ft 516 kts 76°
2026-05-07 15:26 38.99642 -25.03009 30021 ft 515 kts 75°
2026-05-07 15:26 39.00485 -24.98600 30659 ft 501 kts 67°
2026-05-07 15:26 39.01293 -24.95836 31009 ft 493 kts 61°
2026-05-07 15:26 39.02699 -24.91799 31192 ft 496 kts 60°
2026-05-07 15:27 39.05636 -24.83683 31477 ft 502 kts 60°
2026-05-07 15:27 39.07103 -24.79600 31850 ft 500 kts 60°
2026-05-07 15:27 39.08546 -24.75533 32216 ft 499 kts 60°
2026-05-07 15:28 39.09974 -24.71464 32492 ft 499 kts 61°
2026-05-07 15:28 39.11395 -24.67389 32791 ft 499 kts 62°
2026-05-07 15:28 39.12809 -24.63314 33145 ft 497 kts 62°
2026-05-07 15:28 39.14217 -24.59241 33443 ft 497 kts 62°
2026-05-07 15:29 39.15623 -24.55172 33646 ft 498 kts 62°
2026-05-07 15:29 39.17012 -24.51147 33883 ft 498 kts 62°
2026-05-07 15:29 39.18421 -24.47058 34131 ft 498 kts 62°
2026-05-07 15:29 39.19825 -24.42981 34408 ft 496 kts 62°
2026-05-07 15:30 39.21221 -24.38922 34649 ft 495 kts 62°
2026-05-07 15:30 39.22616 -24.34860 34900 ft 494 kts 62°
2026-05-07 15:30 39.24005 -24.30812 35161 ft 493 kts 62°
2026-05-07 15:30 39.25391 -24.26766 35372 ft 493 kts 63°
2026-05-07 15:31 39.26775 -24.22722 35557 ft 493 kts 63°
2026-05-07 15:31 39.28161 -24.18667 35767 ft 493 kts 63°
2026-05-07 15:31 39.29546 -24.14607 35993 ft 492 kts 63°
2026-05-07 15:31 39.30909 -24.10607 36193 ft 492 kts 63°
2026-05-07 15:32 39.32286 -24.06558 36406 ft 492 kts 63°
2026-05-07 15:32 39.33660 -24.02515 36606 ft 492 kts 63°
2026-05-07 15:32 39.35034 -23.98464 36786 ft 492 kts 63°
2026-05-07 15:32 39.36411 -23.94401 36783 ft 495 kts 63°
2026-05-07 15:33 39.39167 -23.86248 36793 ft 493 kts 63°
2026-05-07 15:33 39.41897 -23.78146 36792 ft 490 kts 63°
2026-05-07 15:34 39.44590 -23.70132 36789 ft 487 kts 64°
2026-05-07 15:34 39.47284 -23.62097 36783 ft 486 kts 64°
2026-05-07 15:35 39.49966 -23.54074 36782 ft 486 kts 64°
2026-05-07 15:35 39.52648 -23.46029 36778 ft 487 kts 64°
2026-05-07 15:36 39.55334 -23.37949 36790 ft 488 kts 64°
2026-05-07 15:36 39.58018 -23.29850 36790 ft 490 kts 64°
2026-05-07 15:37 39.60684 -23.21779 36775 ft 491 kts 64°
2026-05-07 15:37 39.63369 -23.13630 36771 ft 492 kts 65°
2026-05-07 15:38 39.66053 -23.05460 36772 ft 492 kts 65°
2026-05-07 15:38 39.68731 -22.97283 36766 ft 491 kts 65°
2026-05-07 15:39 39.71400 -22.89113 36761 ft 491 kts 65°
2026-05-07 15:39 39.74039 -22.81010 36761 ft 490 kts 65°
2026-05-07 15:40 39.76686 -22.72858 36763 ft 489 kts 65°
2026-05-07 15:40 39.79326 -22.64702 36759 ft 488 kts 65°
2026-05-07 15:41 39.81952 -22.56569 36759 ft 488 kts 65°
2026-05-07 15:41 39.84572 -22.48431 36759 ft 487 kts 66°
2026-05-07 15:42 39.87168 -22.40341 36757 ft 487 kts 66°
2026-05-07 15:42 39.89772 -22.32202 36753 ft 487 kts 66°
2026-05-07 15:43 39.92373 -22.24050 36757 ft 487 kts 66°
2026-05-07 15:43 39.94971 -22.15883 36756 ft 487 kts 66°
2026-05-07 15:44 39.97558 -22.07726 36755 ft 487 kts 66°
2026-05-07 15:44 40.00132 -21.99612 36750 ft 487 kts 65°
2026-05-07 15:45 40.02984 -21.91587 36752 ft 487 kts 62°
2026-05-07 15:45 40.05973 -21.83648 36750 ft 487 kts 62°
2026-05-07 15:46 40.10435 -21.71670 36746 ft 491 kts 63°
2026-05-07 15:47 40.13384 -21.63625 36747 ft 490 kts 63°
2026-05-07 15:47 40.16297 -21.55635 36740 ft 489 kts 63°
2026-05-07 15:48 40.19209 -21.47625 36741 ft 487 kts 64°
2026-05-07 15:48 40.22108 -21.39634 36747 ft 485 kts 64°
2026-05-07 15:49 40.24994 -21.31659 36744 ft 483 kts 64°
2026-05-07 15:49 40.27863 -21.23710 36750 ft 482 kts 64°
2026-05-07 15:50 40.30698 -21.15834 36747 ft 481 kts 64°
2026-05-07 15:50 40.33544 -21.07906 36745 ft 480 kts 64°
2026-05-07 15:51 40.36382 -20.99977 36756 ft 480 kts 64°
2026-05-07 15:51 40.39215 -20.92042 36761 ft 481 kts 64°
2026-05-07 15:52 40.42048 -20.84081 36763 ft 482 kts 65°
2026-05-07 15:52 40.44870 -20.76133 36751 ft 483 kts 65°
2026-05-07 15:53 40.47705 -20.68125 36766 ft 483 kts 65°
2026-05-07 15:53 40.50535 -20.60108 36767 ft 484 kts 65°
2026-05-07 15:54 40.53368 -20.52061 36771 ft 484 kts 65°
2026-05-07 15:54 40.56192 -20.44018 36785 ft 484 kts 65°
2026-05-07 15:55 40.58996 -20.36006 36765 ft 484 kts 65°
2026-05-07 15:55 40.61812 -20.27941 36769 ft 483 kts 66°
2026-05-07 15:56 40.64611 -20.19900 36780 ft 482 kts 66°
2026-05-07 15:56 40.67380 -20.11922 36770 ft 481 kts 66°
2026-05-07 15:57 40.70155 -20.03905 36786 ft 480 kts 66°
2026-05-07 15:57 40.72922 -19.95887 36790 ft 479 kts 66°
2026-05-07 15:58 40.75677 -19.87882 36790 ft 479 kts 66°
2026-05-07 15:58 40.78425 -19.79875 36787 ft 479 kts 66°
2026-05-07 15:59 40.81153 -19.71904 36796 ft 479 kts 66°
2026-05-07 15:59 40.83890 -19.63882 36802 ft 479 kts 66°
2026-05-07 16:00 40.86621 -19.55857 36802 ft 479 kts 67°
2026-05-07 16:00 40.89351 -19.47813 36807 ft 479 kts 67°
2026-05-07 16:01 40.92060 -19.39806 36807 ft 480 kts 67°
2026-05-07 16:01 40.94781 -19.31738 36816 ft 480 kts 67°
2026-05-07 16:02 40.97506 -19.23636 36816 ft 481 kts 67°
2026-05-07 16:02 41.00204 -19.15596 36817 ft 481 kts 68°
2026-05-07 16:03 41.02910 -19.07502 36816 ft 480 kts 68°
2026-05-07 16:03 41.05608 -18.99412 36816 ft 480 kts 68°
2026-05-07 16:04 41.08296 -18.91329 36825 ft 479 kts 68°
2026-05-07 16:04 41.10976 -18.83246 36827 ft 478 kts 68°
2026-05-07 16:05 41.13649 -18.75158 36835 ft 478 kts 68°
2026-05-07 16:05 41.16318 -18.67060 36836 ft 478 kts 68°
2026-05-07 16:06 41.18960 -18.59019 36836 ft 478 kts 68°
2026-05-07 16:06 41.21612 -18.50927 36838 ft 478 kts 68°
2026-05-07 16:07 41.24258 -18.42828 36821 ft 477 kts 69°
2026-05-07 16:07 41.26894 -18.34733 36835 ft 477 kts 69°
2026-05-07 16:08 41.29527 -18.26628 36845 ft 476 kts 69°
2026-05-07 16:08 41.32131 -18.18584 36842 ft 477 kts 69°
2026-05-07 16:09 41.34748 -18.10477 36853 ft 477 kts 69°
2026-05-07 16:09 41.37368 -18.02339 36847 ft 478 kts 69°
2026-05-07 16:10 41.39981 -17.94195 36854 ft 478 kts 69°
2026-05-07 16:10 41.42590 -17.86041 36850 ft 478 kts 69°
2026-05-07 16:11 41.45176 -17.77935 36855 ft 478 kts 70°
2026-05-07 16:11 41.47770 -17.69782 36859 ft 477 kts 70°
2026-05-07 16:12 41.50358 -17.61619 36856 ft 477 kts 70°
2026-05-07 16:12 41.52939 -17.53453 36866 ft 477 kts 70°
2026-05-07 16:13 41.55517 -17.45273 36872 ft 477 kts 70°
2026-05-07 16:13 41.58070 -17.37147 36848 ft 477 kts 70°
2026-05-07 16:14 41.60631 -17.28975 36868 ft 477 kts 70°
2026-05-07 16:14 41.63187 -17.20789 36880 ft 477 kts 70°
2026-05-07 16:15 41.65741 -17.12583 36883 ft 479 kts 71°
2026-05-07 16:15 41.68298 -17.04343 36860 ft 480 kts 71°
2026-05-07 16:16 41.70857 -16.96077 36883 ft 480 kts 71°
2026-05-07 16:16 41.73404 -16.87817 36878 ft 480 kts 71°
2026-05-07 16:17 41.75520 -16.80937 36883 ft 480 kts 71°
2026-05-07 16:17 41.78058 -16.72663 36889 ft 480 kts 71°
2026-05-07 16:18 41.80587 -16.64393 36885 ft 479 kts 71°
2026-05-07 16:18 41.83105 -16.56129 36892 ft 479 kts 72°
2026-05-07 16:19 41.85606 -16.47898 36896 ft 479 kts 72°
2026-05-07 16:19 41.88115 -16.39613 36893 ft 478 kts 72°
2026-05-07 16:20 41.90614 -16.31334 36882 ft 478 kts 72°
2026-05-07 16:20 41.93102 -16.23065 36891 ft 478 kts 72°
2026-05-07 16:21 41.95589 -16.14775 36909 ft 478 kts 72°
2026-05-07 16:21 41.98057 -16.06521 36905 ft 478 kts 72°
2026-05-07 16:22 42.00201 -15.98090 36868 ft 473 kts 83°
2026-05-07 16:22 42.00932 -15.89377 36907 ft 469 kts 89°
2026-05-07 16:23 42.01526 -15.80603 36911 ft 471 kts 89°
2026-05-07 16:23 42.02143 -15.71875 36906 ft 472 kts 89°
2026-05-07 16:24 42.02791 -15.63061 36888 ft 474 kts 88°
2026-05-07 16:24 42.03446 -15.54216 36903 ft 475 kts 88°
2026-05-07 16:25 42.04091 -15.45409 36913 ft 476 kts 88°
2026-05-07 16:25 42.04732 -15.36534 36909 ft 477 kts 88°
2026-05-07 16:26 42.05367 -15.27645 36911 ft 477 kts 88°
2026-05-07 16:26 42.05996 -15.18742 36914 ft 477 kts 88°
2026-05-07 16:27 42.06614 -15.09904 36910 ft 477 kts 89°
2026-05-07 16:27 42.07228 -15.01014 36913 ft 476 kts 89°
2026-05-07 16:28 42.07835 -14.92116 36898 ft 476 kts 88°
2026-05-07 16:28 42.08434 -14.83245 36904 ft 475 kts 88°
2026-05-07 16:29 42.09021 -14.74454 36912 ft 474 kts 88°
2026-05-07 16:29 42.09604 -14.65612 36915 ft 473 kts 89°
2026-05-07 16:30 42.10179 -14.56782 36896 ft 473 kts 89°
2026-05-07 16:30 42.10746 -14.47971 36917 ft 472 kts 89°
2026-05-07 16:31 42.11306 -14.39161 36923 ft 472 kts 89°
2026-05-07 16:31 42.11859 -14.30350 36913 ft 472 kts 89°
2026-05-07 16:32 42.12276 -14.21569 36907 ft 471 kts 93°
2026-05-07 16:32 42.12212 -14.12756 36918 ft 470 kts 95°
2026-05-07 16:33 42.12056 -14.03933 36927 ft 471 kts 95°
2026-05-07 16:33 42.11943 -13.95089 36924 ft 473 kts 94°
2026-05-07 16:34 42.11862 -13.86259 36923 ft 474 kts 94°
2026-05-07 16:34 42.11787 -13.77367 36923 ft 475 kts 94°
2026-05-07 16:35 42.11704 -13.68457 36930 ft 476 kts 94°
2026-05-07 16:35 42.11612 -13.59516 36929 ft 477 kts 94°
2026-05-07 16:36 42.11513 -13.50616 36927 ft 478 kts 95°
2026-05-07 16:36 42.11406 -13.41663 36923 ft 478 kts 95°
2026-05-07 16:37 42.11292 -13.32698 36930 ft 478 kts 95°
2026-05-07 16:37 42.11170 -13.23723 36929 ft 479 kts 95°
2026-05-07 16:38 42.11043 -13.14809 36927 ft 479 kts 95°
2026-05-07 16:38 42.10908 -13.05838 36925 ft 478 kts 95°
2026-05-07 16:39 42.10766 -12.96864 36931 ft 478 kts 95°
2026-05-07 16:39 42.10617 -12.87902 36928 ft 479 kts 95°
2026-05-07 16:40 42.10461 -12.78934 36929 ft 479 kts 95°
2026-05-07 16:40 42.10299 -12.70020 36924 ft 479 kts 95°
2026-05-07 16:41 42.10129 -12.61046 36932 ft 480 kts 95°
2026-05-07 16:41 42.09951 -12.52046 36928 ft 481 kts 95°
2026-05-07 16:42 42.09766 -12.43030 36925 ft 481 kts 95°
2026-05-07 16:42 42.09574 -12.34010 36920 ft 482 kts 95°
2026-05-07 16:43 42.09375 -12.24978 36926 ft 483 kts 95°
2026-05-07 16:43 42.09169 -12.15985 36927 ft 484 kts 95°
2026-05-07 16:44 42.08954 -12.06918 36926 ft 485 kts 95°
2026-05-07 16:44 42.08732 -11.97836 36919 ft 485 kts 95°
2026-05-07 16:45 42.08503 -11.88739 36936 ft 486 kts 95°
2026-05-07 16:45 42.08266 -11.79641 36931 ft 487 kts 95°
2026-05-07 16:46 42.08023 -11.70576 36924 ft 487 kts 95°
2026-05-07 16:46 42.07771 -11.61446 36932 ft 488 kts 95°
2026-05-07 16:47 42.07512 -11.52317 36936 ft 488 kts 95°
2026-05-07 16:47 42.07245 -11.43186 36923 ft 488 kts 95°
2026-05-07 16:48 42.06973 -11.34114 36925 ft 487 kts 95°
2026-05-07 16:48 42.06692 -11.24990 36913 ft 487 kts 95°
2026-05-07 16:49 42.06405 -11.15876 36915 ft 487 kts 95°
2026-05-07 16:49 42.06110 -11.06762 36923 ft 487 kts 95°
2026-05-07 16:50 42.05807 -10.97629 36919 ft 488 kts 95°
2026-05-07 16:50 42.05498 -10.88557 36912 ft 488 kts 95°
2026-05-07 16:51 42.05181 -10.79416 36922 ft 489 kts 95°
2026-05-07 16:51 42.04855 -10.70247 36914 ft 490 kts 95°
2026-05-07 16:52 42.04523 -10.61134 36912 ft 491 kts 95°
2026-05-07 16:52 42.04182 -10.51949 36910 ft 491 kts 95°
2026-05-07 16:53 42.03833 -10.42743 36912 ft 492 kts 95°
2026-05-07 16:53 42.03477 -10.33543 36908 ft 493 kts 95°
2026-05-07 16:54 42.03113 -10.24331 36899 ft 493 kts 95°
2026-05-07 16:54 42.02742 -10.15107 36900 ft 493 kts 95°
2026-05-07 16:55 42.02491 -10.05939 36891 ft 495 kts 88°
2026-05-07 16:55 42.03461 -9.96762 36897 ft 495 kts 81°
2026-05-07 16:56 42.04633 -9.87623 36900 ft 495 kts 81°
2026-05-07 16:56 42.06296 -9.73937 36895 ft 495 kts 81°
2026-05-07 16:57 42.07360 -9.64784 36886 ft 494 kts 81°
2026-05-07 16:57 42.08414 -9.55633 36886 ft 494 kts 81°
2026-05-07 16:58 42.09463 -9.46489 36882 ft 494 kts 81°
2026-05-07 16:58 42.10506 -9.37336 36881 ft 493 kts 81°
2026-05-07 16:59 42.11533 -9.28257 36883 ft 493 kts 81°
2026-05-07 16:59 42.12559 -9.19126 36879 ft 493 kts 81°
2026-05-07 17:00 42.13578 -9.09985 36881 ft 493 kts 81°
2026-05-07 17:00 42.14587 -9.00860 36882 ft 493 kts 81°
2026-05-07 17:01 42.15592 -8.91710 36878 ft 493 kts 81°
2026-05-07 17:01 42.16582 -8.82631 36877 ft 493 kts 81°
2026-05-07 17:02 42.17574 -8.73471 36880 ft 494 kts 81°
2026-05-07 17:02 42.18313 -8.64268 36863 ft 495 kts 91°
2026-05-07 17:03 42.17379 -8.55121 36877 ft 493 kts 103°
2026-05-07 17:03 42.16122 -8.47609 36880 ft 494 kts 104°
2026-05-07 17:04 42.14617 -8.38566 36876 ft 495 kts 103°
2026-05-07 17:04 42.13151 -8.29483 36863 ft 495 kts 103°
2026-05-07 17:05 42.11707 -8.20445 36874 ft 497 kts 103°
2026-05-07 17:05 42.10247 -8.11335 36868 ft 498 kts 103°
2026-05-07 17:06 42.08774 -8.02210 36861 ft 500 kts 103°
2026-05-07 17:06 42.07287 -7.93064 36865 ft 500 kts 103°
2026-05-07 17:07 42.05790 -7.83896 36859 ft 501 kts 103°
2026-05-07 17:07 42.04287 -7.74750 36858 ft 500 kts 103°
2026-05-07 17:08 42.02781 -7.65624 36860 ft 500 kts 103°
2026-05-07 17:08 42.01274 -7.56550 36856 ft 500 kts 103°
2026-05-07 17:09 41.99752 -7.47426 36864 ft 500 kts 103°
2026-05-07 17:09 41.98222 -7.38300 36862 ft 501 kts 104°
2026-05-07 17:10 41.96684 -7.29178 36849 ft 501 kts 104°
2026-05-07 17:10 41.95137 -7.20041 36854 ft 501 kts 104°
2026-05-07 17:11 41.93765 -7.10856 36844 ft 502 kts 95°
2026-05-07 17:11 41.93791 -7.01559 36856 ft 502 kts 87°
2026-05-07 17:12 41.94093 -6.92186 36845 ft 502 kts 87°
2026-05-07 17:12 41.94350 -6.82797 36860 ft 504 kts 87°
2026-05-07 17:13 41.94557 -6.73363 36849 ft 506 kts 88°
2026-05-07 17:13 41.94743 -6.63908 36843 ft 507 kts 88°
2026-05-07 17:14 41.94924 -6.54444 36847 ft 507 kts 88°
2026-05-07 17:14 41.95099 -6.44958 36849 ft 508 kts 87°
2026-05-07 17:15 41.95268 -6.35476 36848 ft 507 kts 87°
2026-05-07 17:15 41.95428 -6.26021 36846 ft 506 kts 87°
2026-05-07 17:16 41.95579 -6.16646 36853 ft 504 kts 87°
2026-05-07 17:16 41.95723 -6.07220 36853 ft 503 kts 87°
2026-05-07 17:17 41.95860 -5.97819 36851 ft 502 kts 87°
2026-05-07 17:17 41.95988 -5.88441 36857 ft 501 kts 88°
2026-05-07 17:18 41.96109 -5.79150 36859 ft 500 kts 88°
2026-05-07 17:18 41.95551 -5.69848 36881 ft 500 kts 103°
2026-05-07 17:19 41.93262 -5.61056 36879 ft 499 kts 113°
2026-05-07 17:19 41.90624 -5.52442 36865 ft 499 kts 113°
2026-05-07 17:20 41.88026 -5.43817 36881 ft 498 kts 112°
2026-05-07 17:20 41.85462 -5.35165 36862 ft 498 kts 112°
2026-05-07 17:21 41.82919 -5.26575 36911 ft 498 kts 112°
2026-05-07 17:21 41.80348 -5.17929 36908 ft 499 kts 112°
2026-05-07 17:22 41.77768 -5.09290 36911 ft 500 kts 112°
2026-05-07 17:22 41.75171 -5.00624 36916 ft 500 kts 112°
2026-05-07 17:23 41.72587 -4.92024 36927 ft 501 kts 112°
2026-05-07 17:23 41.69890 -4.83425 36908 ft 500 kts 118°
2026-05-07 17:24 41.66450 -4.75371 36889 ft 498 kts 123°
2026-05-07 17:24 41.62866 -4.67455 36909 ft 497 kts 123°
2026-05-07 17:25 41.59319 -4.59508 36910 ft 498 kts 122°
2026-05-07 17:25 41.55825 -4.51570 36915 ft 498 kts 122°
2026-05-07 17:26 41.52318 -4.43587 36911 ft 498 kts 122°
2026-05-07 17:26 41.48808 -4.35623 36907 ft 497 kts 122°
2026-05-07 17:27 41.45301 -4.27696 36907 ft 496 kts 122°
2026-05-07 17:27 41.41785 -4.19773 36910 ft 496 kts 122°
2026-05-07 17:28 41.38261 -4.11850 36912 ft 497 kts 122°
2026-05-07 17:28 41.34730 -4.03933 36910 ft 498 kts 122°
2026-05-07 17:29 41.31203 -3.96044 36909 ft 499 kts 122°
2026-05-07 17:29 41.27649 -3.88116 36888 ft 500 kts 123°
2026-05-07 17:30 41.24080 -3.80175 36935 ft 500 kts 123°
2026-05-07 17:30 41.20522 -3.72275 36919 ft 501 kts 123°
2026-05-07 17:31 41.16958 -3.64308 36912 ft 502 kts 119°
2026-05-07 17:31 41.14595 -3.55600 36918 ft 503 kts 100°
2026-05-07 17:32 41.13667 -3.46419 36935 ft 502 kts 96°
2026-05-07 17:32 41.12969 -3.38777 36935 ft 502 kts 97°
2026-05-07 17:33 41.11923 -3.28047 36933 ft 501 kts 97°
2026-05-07 17:33 41.10985 -3.18903 36927 ft 501 kts 98°
2026-05-07 17:34 41.10033 -3.09753 36920 ft 500 kts 98°
2026-05-07 17:34 41.09087 -3.00698 36925 ft 499 kts 98°
2026-05-07 17:35 41.08128 -2.91588 36929 ft 498 kts 98°
2026-05-07 17:35 41.07165 -2.82497 36931 ft 498 kts 98°
2026-05-07 17:36 41.06193 -2.73395 36935 ft 499 kts 98°
2026-05-07 17:36 41.05211 -2.64273 36938 ft 499 kts 98°
2026-05-07 17:37 41.04228 -2.55201 36928 ft 500 kts 98°
2026-05-07 17:37 41.03232 -2.46074 36927 ft 500 kts 99°
2026-05-07 17:38 41.02229 -2.36957 36932 ft 500 kts 99°
2026-05-07 17:38 41.01029 -2.27896 36941 ft 499 kts 102°
2026-05-07 17:39 40.99700 -2.18876 36935 ft 499 kts 102°
2026-05-07 17:39 40.98388 -2.09872 36937 ft 498 kts 102°
2026-05-07 17:40 40.97105 -2.00922 36938 ft 497 kts 102°
2026-05-07 17:40 40.95820 -1.91947 36948 ft 496 kts 102°
2026-05-07 17:41 40.94531 -1.83003 36950 ft 495 kts 102°
2026-05-07 17:41 40.93233 -1.74063 36944 ft 494 kts 102°
2026-05-07 17:42 40.91931 -1.65147 36954 ft 493 kts 102°
2026-05-07 17:42 40.90623 -1.56234 36946 ft 493 kts 103°
2026-05-07 17:43 40.89310 -1.47342 36940 ft 493 kts 103°
2026-05-07 17:43 40.87998 -1.38497 36955 ft 493 kts 103°
2026-05-07 17:44 40.86187 -1.29784 36967 ft 491 kts 116°
2026-05-07 17:44 40.82719 -1.22098 36984 ft 486 kts 129°
2026-05-07 17:45 40.78717 -1.14877 36967 ft 488 kts 130°
2026-05-07 17:45 40.74712 -1.07617 36955 ft 490 kts 129°
2026-05-07 17:46 40.70741 -1.00333 36960 ft 490 kts 129°
2026-05-07 17:46 40.66772 -0.93027 36964 ft 489 kts 129°
2026-05-07 17:47 40.62829 -0.85785 36946 ft 489 kts 129°
2026-05-07 17:47 40.58863 -0.78526 36957 ft 488 kts 129°
2026-05-07 17:48 40.54902 -0.71293 36959 ft 486 kts 129°
2026-05-07 17:48 40.50956 -0.64104 36956 ft 483 kts 129°
2026-05-07 17:49 40.47019 -0.56950 36929 ft 482 kts 129°
2026-05-07 17:49 40.43111 -0.49863 36924 ft 481 kts 130°
2026-05-07 17:50 40.39186 -0.42763 36919 ft 480 kts 130°
2026-05-07 17:50 40.35914 -0.36856 36913 ft 481 kts 130°
2026-05-07 17:51 40.31979 -0.29765 36914 ft 481 kts 130°
2026-05-07 17:51 40.27387 -0.21509 36916 ft 482 kts 130°
2026-05-07 17:52 40.24244 -0.15383 36907 ft 486 kts 123°
2026-05-07 17:52 40.21065 -0.07593 36934 ft 490 kts 120°
2026-05-07 17:53 40.17928 0.00344 36969 ft 492 kts 121°
2026-05-07 17:53 40.14734 0.08257 36967 ft 491 kts 121°
2026-05-07 17:54 40.11505 0.16127 36963 ft 490 kts 122°
2026-05-07 17:54 40.08273 0.23955 36960 ft 489 kts 122°
2026-05-07 17:55 40.05038 0.31773 36952 ft 488 kts 122°
2026-05-07 17:55 40.01804 0.39572 36928 ft 487 kts 122°
2026-05-07 17:56 39.98597 0.47293 36939 ft 486 kts 122°
2026-05-07 17:56 39.96975 0.51186 36551 ft 491 kts 122°
2026-05-07 17:56 39.95342 0.55102 35994 ft 489 kts 122°
2026-05-07 17:57 39.93721 0.58989 35333 ft 488 kts 122°
2026-05-07 17:57 39.92648 0.61557 34878 ft 487 kts 122°
2026-05-07 17:57 39.90479 0.66742 33935 ft 487 kts 122°
2026-05-07 17:57 39.88860 0.70608 33159 ft 485 kts 122°
2026-05-07 17:58 39.87256 0.74436 32460 ft 479 kts 122°
2026-05-07 17:58 39.85655 0.78250 31656 ft 474 kts 122°
2026-05-07 17:58 39.84121 0.81912 31117 ft 452 kts 123°
2026-05-07 17:58 39.82609 0.85508 30135 ft 451 kts 123°
2026-05-07 17:59 39.81104 0.89074 29216 ft 448 kts 123°
2026-05-07 17:59 39.79607 0.92616 28324 ft 446 kts 123°
2026-05-07 17:59 39.78133 0.96099 27647 ft 441 kts 123°
2026-05-07 17:59 39.76672 0.99555 27040 ft 434 kts 123°
2026-05-07 18:00 39.75226 1.02972 26455 ft 427 kts 123°
2026-05-07 18:00 39.73801 1.06333 25864 ft 422 kts 123°
2026-05-07 18:00 39.72390 1.09658 25259 ft 417 kts 123°
2026-05-07 18:00 39.70991 1.12949 24657 ft 413 kts 123°
2026-05-07 18:01 39.69610 1.16195 24080 ft 409 kts 122°
2026-05-07 18:01 39.68230 1.19434 23507 ft 407 kts 122°
2026-05-07 18:01 39.66881 1.22599 22849 ft 403 kts 122°
2026-05-07 18:01 39.65521 1.25789 22271 ft 407 kts 122°
2026-05-07 18:02 39.62699 1.32384 21015 ft 421 kts 122°
2026-05-07 18:02 39.60987 1.35400 20385 ft 410 kts 140°
2026-05-07 18:02 39.58665 1.37438 19924 ft 398 kts 156°
2026-05-07 18:03 39.56114 1.38604 19683 ft 387 kts 169°
2026-05-07 18:03 39.53378 1.39066 19109 ft 402 kts 175°
2026-05-07 18:03 39.50598 1.39365 18468 ft 399 kts 176°
2026-05-07 18:03 39.47871 1.39678 17820 ft 396 kts 175°
2026-05-07 18:04 39.45151 1.40111 17158 ft 392 kts 167°
2026-05-07 18:04 39.42677 1.41511 16582 ft 389 kts 147°
2026-05-07 18:04 39.40705 1.43870 15970 ft 387 kts 129°
2026-05-07 18:04 39.39384 1.46876 15538 ft 382 kts 112°
2026-05-07 18:05 39.38729 1.50178 14985 ft 380 kts 97°
2026-05-07 18:05 39.38813 1.53588 14423 ft 375 kts 83°
2026-05-07 18:05 39.39226 1.56855 13874 ft 362 kts 81°
2026-05-07 18:05 39.39668 1.60001 13284 ft 350 kts 81°
2026-05-07 18:06 39.40100 1.63044 12743 ft 338 kts 81°
2026-05-07 18:06 39.40508 1.65986 12279 ft 326 kts 81°
2026-05-07 18:06 39.40889 1.68793 11837 ft 316 kts 81°
2026-05-07 18:06 39.41257 1.71563 11358 ft 307 kts 80°
2026-05-07 18:07 39.41611 1.74253 10991 ft 296 kts 80°
2026-05-07 18:07 39.41943 1.76800 10878 ft 278 kts 80°
2026-05-07 18:07 39.42254 1.79200 10745 ft 263 kts 80°
2026-05-07 18:07 39.42549 1.81476 10627 ft 249 kts 80°
2026-05-07 18:08 39.42826 1.83624 10526 ft 235 kts 80°
2026-05-07 18:08 39.43086 1.85645 10426 ft 221 kts 80°
2026-05-07 18:08 39.43331 1.87547 10354 ft 206 kts 80°
2026-05-07 18:08 39.43561 1.89340 10304 ft 205 kts 80°
2026-05-07 18:09 39.43794 1.91152 10208 ft 202 kts 80°
2026-05-07 18:09 39.44023 1.92930 10126 ft 199 kts 80°
2026-05-07 18:09 39.44249 1.94693 10042 ft 197 kts 80°
2026-05-07 18:09 39.44475 1.96462 9865 ft 203 kts 80°
2026-05-07 18:10 39.44708 1.98285 9679 ft 207 kts 79°
2026-05-07 18:10 39.44939 2.00098 9593 ft 202 kts 79°
2026-05-07 18:10 39.45165 2.01877 9490 ft 197 kts 79°
2026-05-07 18:10 39.45456 2.03608 9351 ft 196 kts 72°
2026-05-07 18:11 39.45888 2.05274 9187 ft 197 kts 70°
2026-05-07 18:11 39.46191 2.06388 9055 ft 198 kts 70°
2026-05-07 18:11 39.46801 2.08635 8796 ft 202 kts 70°
2026-05-07 18:11 39.47262 2.10345 8578 ft 200 kts 70°
2026-05-07 18:12 39.47714 2.12035 8370 ft 196 kts 70°
2026-05-07 18:12 39.48154 2.13684 8160 ft 192 kts 70°
2026-05-07 18:12 39.48594 2.15344 8068 ft 196 kts 70°
2026-05-07 18:12 39.49036 2.17013 8026 ft 195 kts 71°
2026-05-07 18:13 39.49470 2.18659 8024 ft 192 kts 70°
2026-05-07 18:13 39.49902 2.20298 8023 ft 193 kts 71°
2026-05-07 18:13 39.50336 2.21950 8024 ft 194 kts 70°
2026-05-07 18:13 39.50765 2.23585 8024 ft 194 kts 70°
2026-05-07 18:14 39.51198 2.25236 8023 ft 194 kts 70°
2026-05-07 18:14 39.51629 2.26883 8023 ft 193 kts 71°
2026-05-07 18:14 39.52061 2.28529 8025 ft 193 kts 70°
2026-05-07 18:14 39.52492 2.30174 8028 ft 193 kts 72°
2026-05-07 18:15 39.52922 2.31821 8026 ft 192 kts 72°
2026-05-07 18:15 39.53350 2.33463 8023 ft 193 kts 72°
2026-05-07 18:15 39.53779 2.35107 8024 ft 193 kts 72°
2026-05-07 18:15 39.54079 2.36786 8006 ft 192 kts 96°
2026-05-07 18:16 39.53498 2.38295 7908 ft 194 kts 140°
2026-05-07 18:16 39.52228 2.38814 7614 ft 200 kts 186°
2026-05-07 18:16 39.50877 2.38320 7262 ft 204 kts 197°
2026-05-07 18:16 39.49532 2.37721 6938 ft 205 kts 196°
2026-05-07 18:17 39.48149 2.37297 6628 ft 204 kts 192°
2026-05-07 18:17 39.46818 2.36680 6366 ft 203 kts 199°
2026-05-07 18:17 39.45519 2.36027 6033 ft 204 kts 199°
2026-05-07 18:17 39.44183 2.35361 5755 ft 202 kts 199°
2026-05-07 18:18 39.42873 2.34701 5432 ft 204 kts 199°
2026-05-07 18:18 39.41559 2.34051 5193 ft 202 kts 198°
2026-05-07 18:18 39.40212 2.33715 4994 ft 194 kts 164°
2026-05-07 18:18 39.39146 2.34618 4999 ft 185 kts 116°
2026-05-07 18:19 39.38974 2.36210 5019 ft 184 kts 74°
2026-05-07 18:19 39.39352 2.37820 4994 ft 189 kts 72°
2026-05-07 18:19 39.39831 2.39389 4997 ft 186 kts 62°
2026-05-07 18:19 39.40461 2.40842 4995 ft 183 kts 60°
2026-05-07 18:20 39.41108 2.42244 5023 ft 180 kts 59°
2026-05-07 18:20 39.41772 2.43664 4840 ft 189 kts 59°
2026-05-07 18:20 39.42459 2.45125 4607 ft 191 kts 59°
2026-05-07 18:20 39.43146 2.46581 4351 ft 187 kts 59°
2026-05-07 18:21 39.43813 2.47996 4109 ft 185 kts 59°
2026-05-07 18:21 39.44478 2.49406 3868 ft 182 kts 59°
2026-05-07 18:21 39.45131 2.50788 3617 ft 178 kts 59°
2026-05-07 18:21 39.45772 2.52146 3386 ft 175 kts 59°
2026-05-07 18:22 39.46393 2.53462 3152 ft 165 kts 59°
2026-05-07 18:22 39.46778 2.54277 3031 ft 155 kts 59°
2026-05-07 18:22 39.47477 2.55757 2750 ft 136 kts 59°
2026-05-07 18:22 39.47963 2.56786 2563 ft 132 kts 60°
2026-05-07 18:23 39.48443 2.57803 2409 ft 133 kts 59°
2026-05-07 18:23 39.48931 2.58836 2223 ft 134 kts 59°
2026-05-07 18:23 39.49416 2.59862 2037 ft 133 kts 59°
2026-05-07 18:23 39.49894 2.60874 1865 ft 131 kts 59°
2026-05-07 18:24 39.50372 2.61883 1691 ft 132 kts 57°
2026-05-07 18:24 39.50843 2.62881 1510 ft 131 kts 58°
2026-05-07 18:24 39.51323 2.63894 1335 ft 133 kts 59°
2026-05-07 18:24 39.51802 2.64908 1156 ft 130 kts 57°
2026-05-07 18:25 39.52274 2.65902 973 ft 129 kts 58°
2026-05-07 18:25 39.52751 2.66914 810 ft 135 kts 59°
2026-05-07 18:25 39.53242 2.67955 607 ft 135 kts 57°
2026-05-07 18:25 39.53726 2.68969 417 ft 128 kts 57°
2026-05-07 18:26 39.54188 2.69944 281 ft 129 kts 59°
2026-05-07 18:26 39.54655 2.70932 107 ft 127 kts 58°
2026-05-07 18:26 39.55104 2.71882 27 ft 111 kts 59°
2026-05-07 18:26 39.55427 2.72578 24 ft 69 kts 58°
2026-05-07 18:27 39.55606 2.72957 26 ft 39 kts 58°
2026-05-07 18:27 39.55712 2.73248 23 ft 35 kts 84°
2026-05-07 18:27 39.55712 2.73488 25 ft 13 kts 91°
2026-05-07 18:27 39.55712 2.73524 25 ft 4 kts 90°
2026-05-07 18:28 39.55712 2.73527 25 ft 0 kts 90°
2026-05-07 18:29 39.55712 2.73530 25 ft 3 kts 90°
2026-05-07 18:29 39.55706 2.73549 25 ft 0 kts 128°
2026-05-07 18:29 39.55704 2.73550 25 ft 5 kts 132°
2026-05-07 18:30 39.55657 2.73545 26 ft 16 kts 232°
2026-05-07 18:30 39.55595 2.73508 27 ft 9 kts 150°
2026-05-07 18:30 39.55543 2.73553 29 ft 9 kts 145°
2026-05-07 18:30 39.55491 2.73542 30 ft 9 kts 231°
2026-05-07 18:31 39.55458 2.73477 30 ft 9 kts 238°
2026-05-07 18:31 39.55435 2.73437 30 ft 1 kts 201°
2026-05-07 18:31 39.55409 2.73454 31 ft 11 kts 149°
2026-05-07 18:31 39.55346 2.73504 33 ft 10 kts 148°
2026-05-07 18:32 39.55285 2.73554 35 ft 10 kts 148°
2026-05-07 18:32 39.55226 2.73601 35 ft 10 kts 148°
2026-05-07 18:32 39.55169 2.73581 35 ft 10 kts 233°
2026-05-07 18:32 39.55134 2.73509 35 ft 9 kts 239°
2026-05-07 18:33 39.55100 2.73438 34 ft 9 kts 238°
2026-05-07 18:33 39.55066 2.73368 35 ft 9 kts 238°
2026-05-07 18:33 39.55060 2.73354 35 ft 3 kts 244°
2026-05-07 18:33 39.55036 2.73336 35 ft 6 kts 188°
2026-05-07 18:34 39.54989 2.73329 35 ft 1 kts 184°
2026-05-07 18:34 39.54987 2.73328 35 ft 0 kts 184°